UTC,SampNum,MM/DD/YYYY,HH:MM:SS,VbatMain,VbiasPos,VbiasNeg,TC_cont,Humidity,Vrse,Vrse_std,Vk,Vk_std,Ik,Ib,Opt_PN,Opt_SN,Moxy,O2satper,TC_opt,Dphase,Bphase,Rphase,Bamp,Bpot,Ramp,Opt_rawtemp,TC_MCat,Cond,Pres,pSal,day_MC,month_MC,year_MC,time_MC,pH,CHa,NTU,flow,unix_time,TC_cont_flg,Moxy_flg,O2satper_flg,pSal_flg,pH_flg,CHa_flg,NTU_flg
2023-04-01 00:00:02+00:00,#0001016,04/01/2023,00:02:55,10.55,3.61,-3.55,13.11,52,-0.946232,1.3e-005,-0.816921,6.9e-005,-11.85,-1.775,5730,1914,331.841,100.576,12.887,30.315,31.064,37.515,6.452,768.3,685.9,452.2,12.9563,3.86727,0.195,32.8603,1,Apr,2023,00:02:58,7.87930689745464,,,12.2545454545455,1680307202,2,2,2,2,2,2,2
2023-04-01 00:20:02+00:00,#0001017,04/01/2023,00:22:55,10.55,3.61,-3.55,13.24,52,-0.946244,9e-006,-0.817023,5.2e-005,-11.49,-1.781,5730,1914,334.957,101.62,12.931,30.193,30.942,37.402,6.46,764.1,685.4,450.8,12.9893,3.87115,0.195,32.8684,1,Apr,2023,00:22:58,7.87726944364637,,,12.4545454545455,1680308402,2,2,2,2,2,2,2
2023-04-01 00:40:01+00:00,#0001018,04/01/2023,00:42:55,10.58,3.61,-3.55,13.63,53,-0.946246,1e-005,-0.817093,4.9e-005,-8.54,-1.79,5730,1914,335.653,101.872,12.949,30.163,30.912,37.377,6.465,762.9,684.9,450.2,12.9969,3.87201,0.194,32.8699,1,Apr,2023,00:42:57,7.87142980924566,,,12.6363636363636,1680309601,2,2,2,2,2,2,2
2023-04-01 01:00:02+00:00,#0001019,04/01/2023,01:02:55,10.57,3.61,-3.55,13.5,52,-0.946128,1e-005,-0.817077,2.4e-005,-14.27,-1.767,5730,1914,337.23,102.465,12.998,30.09,30.839,37.312,6.473,760.4,684.7,448.6,13.058,3.87661,0.195,32.8604,1,Apr,2023,01:02:58,7.87531001051457,,,12.7818181818182,1680310802,2,2,2,2,2,2,2
2023-04-01 01:20:01+00:00,#0001020,04/01/2023,01:22:55,10.55,3.61,-3.55,13.37,52,-0.946174,1.1e-005,-0.817176,5.7e-005,-10.11,-1.79,5730,1914,337.587,102.603,13.011,30.073,30.822,37.295,6.472,759.6,684.4,448.2,13.0681,3.87692,0.194,32.8545,1,Apr,2023,01:22:58,7.87635909527474,,,13.0727272727273,1680312001,2,2,2,2,2,2,2
2023-04-01 01:40:01+00:00,#0001021,04/01/2023,01:42:55,10.55,3.61,-3.55,13.37,52,-0.946133,6e-006,-0.817149,6.5e-005,-20.61,-1.814,5730,1914,338.122,102.798,13.025,30.05,30.799,37.276,6.476,758.8,684.2,447.7,13.0776,3.87805,0.192,32.8569,1,Apr,2023,01:42:58,7.87711470823398,,,13.0727272727273,1680313201,2,2,2,2,2,2,2
2023-04-01 02:00:02+00:00,#0001022,04/01/2023,02:02:55,10.54,3.61,-3.55,13.37,52,-0.946161,8e-006,-0.817201,4.2e-005,-11.13,-1.796,5730,1914,337.821,102.716,13.03,30.058,30.807,37.291,6.483,759.1,684,447.6,13.0805,3.87785,0.193,32.8526,1,Apr,2023,02:02:58,7.87656050497918,,,13.1636363636364,1680314402,2,2,2,2,2,2,2
2023-04-01 02:20:02+00:00,#0001023,04/01/2023,02:22:55,10.55,3.61,-3.55,13.5,52,-0.946151,8e-006,-0.817187,2.6e-005,-13.23,-1.799,5730,1914,337.323,102.566,13.03,30.074,30.823,37.309,6.486,759.6,683.8,447.6,13.0808,3.87746,0.192,32.8486,1,Apr,2023,02:22:58,7.87473643541953,,,13.4363636363636,1680315602,2,2,2,2,2,2,2
2023-04-01 02:40:02+00:00,#0001024,04/01/2023,02:42:55,10.55,3.61,-3.55,13.37,52,-0.946151,8e-006,-0.817129,6.3e-005,-9.9,-1.776,5730,1914,337.999,102.79,13.038,30.049,30.798,37.286,6.488,758.9,683.8,447.3,13.0894,3.87781,0.193,32.8445,1,Apr,2023,02:42:58,7.87662018987105,,,13.3636363636364,1680316802,2,2,2,2,2,2,2
2023-04-01 03:00:01+00:00,#0001025,04/01/2023,03:02:55,10.55,3.61,-3.55,13.63,52,-0.946188,1.4e-005,-0.81721,2.9e-005,-13.77,-1.794,5730,1914,336.773,102.43,13.044,30.087,30.836,37.326,6.49,760.1,683.7,447.1,13.097,3.87828,0.195,32.8424,1,Apr,2023,03:02:57,7.87205501259984,,,13.6909090909091,1680318001,2,2,2,2,2,2,2
2023-04-01 03:20:02+00:00,#0001026,04/01/2023,03:22:55,10.55,3.61,-3.55,13.5,52,-0.946147,5e-006,-0.817207,4.2e-005,-16.85,-1.779,5730,1914,336.718,102.451,13.06,30.082,30.831,37.321,6.49,759.9,683.7,446.6,13.1085,3.87977,0.195,32.8465,1,Apr,2023,03:22:58,7.87477664933973,,,13.6363636363636,1680319202,2,2,2,2,2,2,2
2023-04-01 03:40:02+00:00,#0001027,04/01/2023,03:42:55,10.55,3.61,-3.55,13.24,52,-0.946159,1e-005,-0.817271,5.7e-005,-17.22,-1.799,5730,1914,336.702,102.478,13.074,30.076,30.825,37.316,6.49,759.5,683.5,446.2,13.1241,3.88102,0.197,32.8447,1,Apr,2023,03:42:58,7.87842507971548,,,13.8,1680320402,2,2,2,2,2,2,2
2023-04-01 04:00:02+00:00,#0001028,04/01/2023,04:02:55,10.56,3.61,-3.55,13.37,52,-0.946161,9e-006,-0.817227,6.6e-005,-7.75,-1.815,5730,1914,336.72,102.492,13.078,30.074,30.823,37.319,6.496,759.6,683.5,446,13.1279,3.88094,0.197,32.8407,1,Apr,2023,04:02:58,7.87638976723947,,,13.6909090909091,1680321602,2,2,2,2,2,2,2
2023-04-01 04:20:01+00:00,#0001029,04/01/2023,04:22:55,10.55,3.61,-3.55,13.63,52,-0.946182,5e-006,-0.817267,4.8e-005,-10.92,-1.802,5730,1914,334.811,101.908,13.076,30.138,30.887,37.382,6.495,761.7,683.4,446.1,13.1246,3.8796,0.198,32.8308,1,Apr,2023,04:22:58,7.8719941797672,,,13.6181818181818,1680322801,2,2,2,2,2,2,2
2023-04-01 04:40:02+00:00,#0001030,04/01/2023,04:42:55,10.56,3.61,-3.55,13.63,52,-0.946194,1.4e-005,-0.817437,2.4e-005,-12.47,-1.807,5730,1914,336.798,102.5,13.071,30.075,30.824,37.324,6.5,759.6,683.4,446.3,13.1197,3.87702,0.2,32.8108,1,Apr,2023,04:42:58,7.87149654697112,,,13.7454545454545,1680324002,2,2,2,2,2,2,2
2023-04-01 05:00:01+00:00,#0001031,04/01/2023,05:02:55,10.55,3.61,-3.55,13.89,52,-0.946089,8e-006,-0.817448,4.1e-005,-12.57,-1.796,5730,1914,338.386,102.982,13.07,30.023,30.772,37.272,6.499,757.8,683.4,446.3,13.1186,3.87587,0.201,32.8008,1,Apr,2023,05:02:57,7.86931425270202,,,13.8363636363636,1680325201,2,2,2,2,2,2,2
2023-04-01 05:20:01+00:00,#0001032,04/01/2023,05:22:55,10.55,3.61,-3.55,13.63,52,-0.946034,1.1e-005,-0.817318,6.6e-005,-16.47,-1.762,5730,1914,338.267,102.913,13.056,30.033,30.782,37.282,6.5,758.2,683.3,446.7,13.1039,3.87475,0.2,32.8031,1,Apr,2023,05:22:57,7.87419794864271,,,13.5818181818182,1680326401,2,2,2,2,2,2,2
2023-04-01 05:40:02+00:00,#0001033,04/01/2023,05:42:55,10.55,3.61,-3.55,13.37,52,-0.94608,7e-006,-0.817167,3.7e-005,-9.24,-1.785,5730,1914,330.398,100.444,13.023,30.306,31.055,37.556,6.5,767.5,683.5,447.8,13.0664,3.87177,0.199,32.8074,1,Apr,2023,05:42:58,7.87733661302055,,,13.8,1680327602,2,2,2,2,2,2,2
2023-04-01 06:00:01+00:00,#0001034,04/01/2023,06:02:55,10.56,3.61,-3.55,13.63,52,-0.946174,1.1e-005,-0.817003,3.1e-005,-14.08,-1.821,5730,1914,319.681,97.158,13.01,30.678,31.427,37.92,6.493,780.2,683.7,448.2,13.0512,3.8708,0.198,32.8114,1,Apr,2023,06:02:57,7.87185662807688,,,13.7272727272727,1680328801,2,2,2,2,2,2,2
2023-04-01 06:20:02+00:00,#0001035,04/01/2023,06:22:55,10.58,3.61,-3.55,13.63,52,-0.94626,8e-006,-0.816941,4.5e-005,-8.22,-1.79,5730,1914,314.895,95.684,13.001,30.851,31.6,38.091,6.492,785.9,683.9,448.5,13.0377,3.87014,0.197,32.8169,1,Apr,2023,06:22:58,7.87042413717581,,,13.8727272727273,1680330002,2,2,2,2,2,2,2
2023-04-01 06:40:01+00:00,#0001036,04/01/2023,06:42:55,10.55,3.61,-3.55,13.37,52,-0.946262,9e-006,-0.816899,5.7e-005,-11.36,-1.78,5730,1914,314.659,95.618,13.004,30.858,31.607,38.101,6.494,786.2,684,448.4,13.0536,3.87017,0.198,32.8034,1,Apr,2023,06:42:58,7.87407784087619,,,13.6727272727273,1680331201,2,2,2,2,2,2,2
2023-04-01 07:00:02+00:00,#0001037,04/01/2023,07:02:55,10.56,3.61,-3.55,13.37,52,-0.946405,6e-006,-0.817027,5.5e-005,-18.98,-1.739,5730,1914,315.447,95.836,12.994,30.834,31.583,38.069,6.486,785.5,684.1,448.8,13.0387,3.86909,0.197,32.8061,1,Apr,2023,07:02:58,7.87160125752117,,,13.4909090909091,1680332402,2,2,2,2,2,2,2
2023-04-01 07:20:02+00:00,#0001038,04/01/2023,07:22:55,10.56,3.61,-3.55,13.37,52,-0.946369,7e-006,-0.81712,3.8e-005,-11.33,-1.755,5730,1914,315.986,95.967,12.978,30.821,31.57,38.057,6.486,785,684.2,449.2,13.0201,3.86653,0.197,32.798,1,Apr,2023,07:22:58,7.87211820204946,,,13.6363636363636,1680333602,2,2,2,2,2,2,2
2023-04-01 07:40:01+00:00,#0001039,04/01/2023,07:42:55,10.56,3.61,-3.55,13.37,52,-0.946276,1.2e-005,-0.817069,5.4e-005,-7,-1.794,5730,1914,312.396,94.82,12.952,30.961,31.71,38.198,6.488,789.9,684.4,450.1,12.9836,3.86364,0.194,32.8023,1,Apr,2023,07:42:58,7.87381579115221,,,13.1636363636364,1680334801,2,2,2,2,2,2,2
2023-04-01 08:00:02+00:00,#0001040,04/01/2023,08:02:55,10.54,3.61,-3.55,13.37,52,-0.946247,7e-006,-0.817081,3e-005,-13.53,-1.773,5730,1914,316.193,95.982,12.956,30.823,31.572,38.057,6.485,785.3,684.5,450,13.002,3.86452,0.194,32.7946,1,Apr,2023,08:02:58,7.87421534398478,,,12.5636363636364,1680336002,2,2,2,2,2,2,2
2023-04-01 08:20:02+00:00,#0001041,04/01/2023,08:22:55,10.55,3.61,-3.55,13.37,52,-0.946206,9e-006,-0.817004,3.6e-005,-13.31,-1.79,5730,1914,317.761,96.455,12.955,30.769,31.518,37.997,6.48,783.4,684.6,450,12.9994,3.86424,0.192,32.7942,1,Apr,2023,08:22:58,7.87493078350634,,,13.2363636363636,1680337202,2,2,2,2,2,2,2
2023-04-01 08:40:02+00:00,#0001042,04/01/2023,08:42:55,10.55,3.61,-3.55,13.37,52,-0.94624,1e-005,-0.817013,5.2e-005,-13.26,-1.806,5730,1914,317.47,96.296,12.922,30.793,31.542,38.02,6.478,784.1,684.6,451.1,12.9661,3.86268,0.191,32.8083,1,Apr,2023,08:42:58,7.87453516102706,,,13.0181818181818,1680338402,2,2,2,2,2,2,2
2023-04-01 09:00:01+00:00,#0001043,04/01/2023,09:02:55,10.57,3.61,-3.55,13.63,52,-0.946212,9e-006,-0.816883,4.3e-005,-9.24,-1.802,5730,1914,315.674,95.759,12.926,30.854,31.603,38.079,6.476,786.4,684.8,450.9,12.972,3.86254,0.192,32.8019,1,Apr,2023,09:02:58,7.87105258926455,,,12.5818181818182,1680339601,2,2,2,2,2,2,2
2023-04-01 09:20:02+00:00,#0001044,04/01/2023,09:22:55,10.54,3.61,-3.55,13.11,52,-0.946316,7e-006,-0.816868,4.4e-005,-10.77,-1.747,5730,1914,314.008,95.274,12.935,30.91,31.659,38.135,6.476,788.4,684.8,450.6,12.9854,3.86265,0.191,32.7914,1,Apr,2023,09:22:58,7.87683809367549,,,13.0363636363636,1680340802,2,2,2,2,2,2,2
2023-04-01 09:40:02+00:00,#0001045,04/01/2023,09:42:55,10.55,3.61,-3.55,13.11,52,-0.946408,9e-006,-0.816896,3.9e-005,-18.16,-1.773,5730,1914,313.065,94.955,12.92,30.95,31.699,38.175,6.476,789.8,684.9,451.1,12.9707,3.86232,0.191,32.8009,1,Apr,2023,09:42:58,7.87535490770687,,,13.1818181818182,1680342002,2,2,2,2,2,2,2
2023-04-01 10:00:01+00:00,#0001046,04/01/2023,10:02:54,10.55,3.61,-3.55,12.85,52,-0.946442,8e-006,-0.816934,3.9e-005,-13.88,-1.762,5730,1914,313.937,95.173,12.898,30.928,31.677,38.154,6.477,789,684.9,451.8,12.9405,3.86035,0.191,32.8085,1,Apr,2023,10:02:57,7.87874719982248,,,13.0545454545455,1680343201,2,2,2,2,2,2,2
2023-04-01 10:20:01+00:00,#0001047,04/01/2023,10:22:54,10.55,3.61,-3.55,13.11,52,-0.946386,5e-006,-0.816859,3.3e-005,-15.93,-1.764,5730,1914,312.157,94.598,12.881,30.999,31.748,38.222,6.474,791.5,685,452.4,12.9199,3.85945,0.189,32.8179,1,Apr,2023,10:22:57,7.87598653824659,,,13.1272727272727,1680344401,2,2,2,2,2,2,2
2023-04-01 10:40:02+00:00,#0001048,04/01/2023,10:42:55,10.59,3.61,-3.55,13.37,53,-0.946414,6e-006,-0.816921,3e-005,-7.45,-1.776,5730,1914,313.781,95.066,12.87,30.945,31.694,38.169,6.474,789.7,685.3,452.7,12.9181,3.85908,0.187,32.8159,1,Apr,2023,10:42:58,7.87158362693236,,,12.9090909090909,1680345602,2,2,2,2,2,2,2
2023-04-01 11:00:01+00:00,#0001049,04/01/2023,11:02:55,10.57,3.61,-3.55,13.37,52,-0.946376,7e-006,-0.816783,3.1e-005,-16.85,-1.759,5730,1914,314.259,95.17,12.851,30.936,31.685,38.157,6.472,789.5,685.4,453.4,12.8913,3.85739,0.187,32.8231,1,Apr,2023,11:02:58,7.8723553830817,,,13.3818181818182,1680346801,2,2,2,2,2,2,2
2023-04-01 11:20:01+00:00,#0001050,04/01/2023,11:22:54,10.55,3.61,-3.55,13.11,52,-0.946387,1e-005,-0.816687,2.3e-005,-16.76,-1.753,5730,1914,312.549,94.654,12.851,30.997,31.746,38.214,6.467,791.5,685.4,453.3,12.9012,3.85766,0.187,32.8171,1,Apr,2023,11:22:57,7.87595743714902,,,13.4909090909091,1680348001,2,2,2,2,2,2,2
2023-04-01 11:40:01+00:00,#0001051,04/01/2023,11:42:55,10.56,3.61,-3.55,13.37,52,-0.946514,1.2e-005,-0.816775,5.2e-005,-24.93,-1.772,5730,1914,312.158,94.491,12.831,31.02,31.769,38.238,6.469,792.3,685.5,454,12.8765,3.8548,0.185,32.8115,1,Apr,2023,11:42:58,7.86976148537758,,,13.5636363636364,1680349201,2,2,2,2,2,2,2
2023-04-01 12:00:01+00:00,#0001052,04/01/2023,12:02:54,10.55,3.61,-3.55,13.24,52,-0.946624,1e-005,-0.816731,3.9e-005,-14.96,-1.764,5730,1914,306.404,92.666,12.791,31.247,31.996,38.462,6.466,799.9,685.6,455.3,12.834,3.85142,0.185,32.8163,1,Apr,2023,12:02:57,7.86983431047382,,,13.4545454545455,1680350401,2,2,2,2,2,2,2
2023-04-01 12:20:02+00:00,#0001053,04/01/2023,12:22:55,10.56,3.61,-3.55,13.37,52,-0.946861,9e-006,-0.816751,4.4e-005,-12.3,-1.698,5730,1914,298.712,90.148,12.696,31.575,32.324,38.789,6.464,811.1,685.8,458.3,12.7267,3.84404,0.185,32.8395,1,Apr,2023,12:22:58,7.86405967109378,,,13.7818181818182,1680351602,2,2,2,2,2,2,2
2023-04-01 12:40:01+00:00,#0001054,04/01/2023,12:42:54,10.55,3.61,-3.55,13.11,52,-0.94698,9e-006,-0.816707,9.2e-005,-16.7,-1.708,5730,1914,295.003,88.849,12.606,31.756,32.505,38.966,6.461,817.6,686.3,461.2,12.6442,3.83825,0.186,32.8563,1,Apr,2023,12:42:57,7.86608031476604,,,13.7272727272727,1680352801,2,2,2,2,2,2,2
2023-04-01 13:00:02+00:00,#0001055,04/01/2023,13:02:55,10.54,3.61,-3.55,12.85,52,-0.947007,6e-006,-0.816639,3.5e-005,-19.45,-1.712,5730,1914,293.05,88.086,12.519,31.87,32.619,39.074,6.455,821.5,687,464.1,12.5419,3.83135,0.186,32.8798,1,Apr,2023,13:02:58,7.86981611830509,,,13.9454545454545,1680354002,2,2,2,2,2,2,2
2023-04-01 13:20:02+00:00,#0001056,04/01/2023,13:22:55,10.55,3.61,-3.55,12.85,52,-0.948249,1.2e-005,-0.817183,2.6e-005,-11.9,-1.682,5730,1914,290.6,86.058,11.862,32.252,33.001,39.451,6.449,834.6,687.4,485.1,11.8065,3.7828,0.186,33.0601,1,Apr,2023,13:22:58,7.8505178641925,,,13.5454545454545,1680355202,2,2,2,2,2,2,2
2023-04-01 13:40:02+00:00,#0001057,04/01/2023,13:42:55,10.55,3.61,-3.55,12.34,53,-0.947999,9e-006,-0.816186,1.6e-005,-9.29,-1.649,5730,1914,271.524,79.957,11.616,33.147,33.896,40.343,6.447,865.7,690.5,493,11.5825,3.76474,0.185,33.0837,1,Apr,2023,13:42:58,7.86283788819818,,,13.9090909090909,1680356402,2,2,2,2,2,2,2
2023-04-01 14:00:01+00:00,#0001058,04/01/2023,14:02:54,10.54,3.61,-3.55,12.08,52,-0.947775,7e-006,-0.815516,4e-005,-15.28,-1.621,5730,1914,262.593,77.08,11.476,33.601,34.35,40.787,6.437,881.3,693.2,497.5,11.4718,3.75677,0.187,33.1046,1,Apr,2023,14:02:57,7.87096014316169,,,13.9454545454545,1680357601,2,2,2,2,2,2,2
2023-04-01 14:20:02+00:00,#0001059,04/01/2023,14:22:55,10.54,3.61,-3.55,12.08,53,-0.947375,8e-006,-0.814951,2.9e-005,-12.06,-1.65,5730,1914,258.751,76.155,11.592,33.721,34.47,40.906,6.436,885.7,695,493.8,11.6421,3.76814,0.192,33.0637,1,Apr,2023,14:22:58,7.87743989783354,,,14.0181818181818,1680358802,2,2,2,2,2,2,2
2023-04-01 14:40:01+00:00,#0001060,04/01/2023,14:42:54,10.53,3.61,-3.55,12.08,53,-0.947528,8e-006,-0.815123,6.7e-005,-11.47,-1.633,5730,1914,261.409,76.926,11.586,33.604,34.353,40.778,6.425,881.6,695.3,494,11.6361,3.76947,0.194,33.082,1,Apr,2023,14:42:58,7.87499961292428,,,14.0181818181818,1680360001,2,2,2,2,2,2,2
2023-04-01 15:00:02+00:00,#0001061,04/01/2023,15:02:55,10.55,3.61,-3.55,12.34,53,-0.947408,1.6e-005,-0.814964,7.4e-005,-16.28,-1.595,5730,1914,262.891,77.56,11.697,33.488,34.237,40.653,6.416,877.9,695.3,490.4,11.7685,3.77834,0.194,33.0505,1,Apr,2023,15:02:58,7.87279407335716,,,14.0181818181818,1680361202,2,2,2,2,2,2,2
2023-04-01 15:20:02+00:00,#0001062,04/01/2023,15:22:55,10.54,3.61,-3.55,12.08,53,-0.9476,8e-006,-0.815008,3.4e-005,-2.64,-1.655,5730,1914,264.046,77.948,11.724,33.425,34.174,40.58,6.406,875.7,694.7,489.5,11.787,3.78041,0.197,33.0542,1,Apr,2023,15:22:58,7.87332766413941,,,13.9090909090909,1680362402,2,2,2,2,2,2,2
2023-04-01 15:40:01+00:00,#0001063,04/01/2023,15:42:55,10.54,3.61,-3.55,12.21,53,-0.947458,5e-006,-0.815201,5.2e-005,-10.71,-1.635,5730,1914,265.32,78.671,11.918,33.282,34.031,40.432,6.401,870.7,694.4,483.3,12.0045,3.79406,0.197,32.9938,1,Apr,2023,15:42:58,7.87303191344523,,,13.1636363636364,1680363601,2,2,2,2,2,2,2
2023-04-01 16:00:01+00:00,#0001064,04/01/2023,16:02:54,10.53,3.61,-3.55,12.08,53,-0.947252,1e-005,-0.815489,2.8e-005,-20.17,-1.663,5730,1914,277.885,82.697,12.077,32.674,33.423,39.819,6.397,850.2,693.6,478.2,12.1725,3.80538,0.198,32.9547,1,Apr,2023,16:02:57,7.87804456989859,,,14.0545454545455,1680364801,2,2,2,2,2,2,2
2023-04-01 16:20:02+00:00,#0001065,04/01/2023,16:22:55,10.56,3.61,-3.55,12.47,53,-0.947533,1.1e-005,-0.815953,7.9e-005,-18.57,-1.708,5730,1914,286.14,85.011,12.003,32.368,33.117,39.516,6.399,839.6,692.4,480.6,12.0546,3.79701,0.199,32.978,1,Apr,2023,16:22:58,7.86761070231126,,,13.9818181818182,1680366002,2,2,2,2,2,2,2
2023-04-01 16:40:02+00:00,#0001066,04/01/2023,16:42:55,10.55,3.61,-3.55,12.34,53,-0.947403,9e-006,-0.815976,4.2e-005,-16.24,-1.638,5730,1914,285.907,85.03,12.049,32.357,33.106,39.506,6.399,839.1,692.1,479.1,12.1083,3.80087,0.2,32.9678,1,Apr,2023,16:42:58,7.87169342911307,,,13.9090909090909,1680367202,2,2,2,2,2,2,2
2023-04-01 17:00:01+00:00,#0001067,04/01/2023,17:02:54,10.55,3.61,-3.55,12.6,53,-0.946834,1.2e-005,-0.815789,3.9e-005,-15.53,-1.683,5730,1914,290.464,86.939,12.331,32.053,32.802,39.201,6.4,828.8,691.8,470.1,12.4216,3.82347,0.199,32.9096,1,Apr,2023,17:02:58,7.87702168277146,,,13.7090909090909,1680368401,2,2,2,2,2,2,2
2023-04-01 17:20:02+00:00,#0001068,04/01/2023,17:22:55,10.55,3.61,-3.55,12.6,52,-0.946862,8e-006,-0.816242,3.5e-005,-13.62,-1.676,5730,1914,303.909,91.109,12.401,31.506,32.255,38.659,6.404,809.8,690.6,467.8,12.4836,3.82853,0.2,32.9039,1,Apr,2023,17:22:58,7.87644586649844,,,13.6727272727273,1680369602,2,2,2,2,2,2,2
2023-04-01 17:40:02+00:00,#0001069,04/01/2023,17:42:55,10.56,3.61,-3.55,12.85,53,-0.946877,9e-006,-0.816592,6.4e-005,-15.79,-1.706,5730,1914,308.983,92.737,12.452,31.297,32.046,38.458,6.412,802.3,689.5,466.2,12.5181,3.83016,0.199,32.8892,1,Apr,2023,17:42:58,7.87224204129268,,,13.3636363636364,1680370802,2,2,2,2,2,2,2
2023-04-01 18:00:01+00:00,#0001070,04/01/2023,18:02:54,10.58,3.61,-3.55,12.98,53,-0.946678,1.1e-005,-0.816755,4.2e-005,-17.42,-1.694,5730,1914,314.352,94.49,12.519,31.074,31.823,38.241,6.418,794.7,688.9,464.1,12.5861,3.83364,0.2,32.863,1,Apr,2023,18:02:58,7.87343272183657,,,13.2181818181818,1680372001,2,2,2,2,2,2,2
2023-04-01 18:20:02+00:00,#0001071,04/01/2023,18:22:55,10.53,3.61,-3.55,12.73,52,-0.946399,1.3e-005,-0.816878,2.9e-005,-7.32,-1.712,5730,1914,321.618,96.903,12.624,30.773,31.522,37.945,6.423,784.4,688.4,460.7,12.6971,3.84148,0.198,32.8409,1,Apr,2023,18:22:58,7.88176338471472,,,13,1680373202,2,2,2,2,2,2,2
2023-04-01 18:40:02+00:00,#0001072,04/01/2023,18:42:55,10.55,3.61,-3.55,12.85,52,-0.946311,1.5e-005,-0.817226,4.4e-005,-9.98,-1.707,5730,1914,330.144,99.532,12.651,30.47,31.219,37.65,6.431,774,687.6,459.8,12.715,3.84242,0.197,32.8343,1,Apr,2023,18:42:58,7.88142675931592,,,12.8181818181818,1680374402,2,2,2,2,2,2,2
2023-04-01 19:00:01+00:00,#0001073,04/01/2023,19:02:54,10.55,3.61,-3.55,12.85,52,-0.946022,1.3e-005,-0.817217,6.2e-005,-15.58,-1.759,5730,1914,334.411,100.991,12.727,30.296,31.045,37.48,6.435,767.7,687.1,457.4,12.7914,3.84872,0.198,32.8277,1,Apr,2023,19:02:57,7.88642454087482,,,12.6,1680375601,2,2,2,2,2,2,2
2023-04-01 19:20:01+00:00,#0001074,04/01/2023,19:22:54,10.55,3.61,-3.55,13.11,52,-0.946012,8e-006,-0.817441,5.3e-005,-13.48,-1.745,5730,1914,339.369,102.551,12.754,30.122,30.871,37.314,6.443,761.9,686.6,456.5,12.8115,3.85084,0.195,32.8303,1,Apr,2023,19:22:57,7.88274926836386,,,12.5454545454545,1680376801,2,2,2,2,2,2,2
2023-04-01 19:40:02+00:00,#0001075,04/01/2023,19:42:55,10.55,3.61,-3.55,13.11,52,-0.945919,1.2e-005,-0.817521,5.9e-005,-7.85,-1.708,5730,1914,341.271,103.187,12.78,30.05,30.799,37.247,6.449,759.2,686.2,455.6,12.8354,3.85278,0.193,32.828,1,Apr,2023,19:42:58,7.88435356429017,,,12.2909090909091,1680378002,2,2,2,2,2,2,2
2023-04-01 20:00:01+00:00,#0001076,04/01/2023,20:02:54,10.56,3.61,-3.55,13.11,52,-0.945699,1.1e-005,-0.817484,5.1e-005,-11.88,-1.769,5730,1914,346.271,104.814,12.829,29.87,30.619,37.072,6.454,753.1,685.8,454.1,12.8909,3.85719,0.191,32.8216,1,Apr,2023,20:02:57,7.88813488757239,,,12.0545454545455,1680379201,2,2,2,2,2,2,2
2023-04-01 20:20:01+00:00,#0001077,04/01/2023,20:22:54,10.55,3.61,-3.55,13.11,52,-0.9457,1.1e-005,-0.817626,4.4e-005,-15.46,-1.74,5730,1914,349.759,105.872,12.83,29.76,30.509,36.968,6.459,749.4,685.5,454,12.8812,3.85676,0.19,32.826,1,Apr,2023,20:22:57,7.88818050029957,,,11.9090909090909,1680380401,2,2,2,2,2,2,2
2023-04-01 20:40:01+00:00,#0001078,04/01/2023,20:42:54,10.55,3.61,-3.55,13.5,52,-0.945548,1.3e-005,-0.817457,3.1e-005,-8.11,-1.717,5730,1914,347.786,105.46,12.909,29.789,30.538,37,6.461,750.1,685.3,451.5,12.9607,3.86333,0.188,32.8191,1,Apr,2023,20:42:58,7.88491518585217,,,11.7818181818182,1680381601,2,2,2,2,2,2,2
2023-04-01 21:00:02+00:00,#0001079,04/01/2023,21:02:55,10.54,3.61,-3.55,13.24,52,-0.945744,7e-006,-0.817682,2.7e-005,-17.06,-1.735,5730,1914,347.409,105.262,12.873,29.816,30.565,37.03,6.466,750.9,684.9,452.6,12.9247,3.86113,0.187,32.8297,1,Apr,2023,21:02:58,7.88551280983521,,,11.6909090909091,1680382802,2,2,2,2,2,2,2
2023-04-01 21:20:02+00:00,#0001080,04/01/2023,21:22:55,10.55,3.61,-3.55,13.37,52,-0.945299,9e-006,-0.817267,4.5e-005,-15.19,-1.745,5730,1914,343.784,104.659,13.085,29.844,30.593,37.058,6.465,751.9,684.8,445.8,13.1527,3.87954,0.186,32.8061,1,Apr,2023,21:22:58,7.89105560368137,,,11.6,1680384002,2,2,2,2,2,2,2
2023-04-01 21:40:02+00:00,#0001081,04/01/2023,21:42:54,10.54,3.61,-3.55,13.37,52,-0.945492,8e-006,-0.817492,3.6e-005,-10.06,-1.763,5730,1914,346.671,105.621,13.12,29.738,30.487,36.967,6.481,748.3,684.1,444.7,13.1859,3.882,0.184,32.8005,1,Apr,2023,21:42:58,7.88758037147464,,,11.5454545454545,1680385202,2,2,2,2,2,2,2
2023-04-01 22:00:01+00:00,#0001082,04/01/2023,22:02:54,10.55,3.61,-3.55,14.02,53,-0.94546,7e-006,-0.817446,6.7e-005,-11.78,-1.775,5730,1914,342.943,104.715,13.219,29.816,30.565,37.055,6.49,750.7,683.6,441.5,13.2878,3.89085,0.184,32.7959,1,Apr,2023,22:02:57,7.87834134873495,,,11.6363636363636,1680386401,2,2,2,2,2,2,2
2023-04-01 22:20:02+00:00,#0001083,04/01/2023,22:22:55,10.55,3.61,-3.55,13.37,52,-0.945498,8e-006,-0.817495,4.8e-005,-6.28,-1.793,5730,1914,341.048,104.311,13.294,29.845,30.594,37.097,6.502,751.7,682.9,439.1,13.355,3.89773,0.182,32.8025,1,Apr,2023,22:22:58,7.88750354612155,,,11.6363636363636,1680387602,2,2,2,2,2,2,2
2023-04-01 22:40:02+00:00,#0001084,04/01/2023,22:42:55,10.56,3.61,-3.55,13.63,52,-0.945548,1.1e-005,-0.817629,7.2e-005,-17.01,-1.804,5730,1914,338.49,103.712,13.373,29.895,30.644,37.155,6.51,753.2,682.3,436.5,13.4442,3.90495,0.182,32.7933,1,Apr,2023,22:42:58,7.88259830292963,,,11.5272727272727,1680388802,2,2,2,2,2,2,2
2023-04-01 23:00:01+00:00,#0001085,04/01/2023,23:02:54,10.56,3.61,-3.55,13.5,52,-0.945697,8e-006,-0.818106,5.8e-005,-16,-1.838,5730,1914,342.492,104.945,13.377,29.766,30.515,37.04,6.525,748.6,681.6,436.4,13.441,3.90463,0.18,32.7931,1,Apr,2023,23:02:58,7.88192244066581,,,11.0727272727273,1680390001,2,2,2,2,2,2,2
2023-04-01 23:20:01+00:00,#0001086,04/01/2023,23:22:54,10.56,3.61,-3.55,13.63,52,-0.945603,7e-006,-0.818334,4.8e-005,-7.26,-1.81,5730,1914,354.958,108.826,13.402,29.367,30.116,36.647,6.531,734.6,681.3,435.6,13.4594,3.90721,0.181,32.8014,1,Apr,2023,23:22:57,7.88174791007043,,,11.0363636363636,1680391201,2,2,2,2,2,2,2
2023-04-01 23:40:02+00:00,#0001087,04/01/2023,23:42:55,10.55,3.61,-3.55,13.76,52,-0.94544,6e-006,-0.818359,5.1e-005,-14.81,-1.832,5730,1914,361.791,110.861,13.378,29.172,29.921,36.459,6.538,727.9,681,436.4,13.4275,3.9053,0.18,32.811,1,Apr,2023,23:42:58,7.88280267193888,,,11.7636363636364,1680392402,2,2,2,2,2,2,2
2023-04-02 00:00:01+00:00,#0001088,04/02/2023,00:02:54,10.53,3.61,-3.55,13.63,52,-0.945402,6e-006,-0.818377,6.6e-005,-13.07,-1.828,5730,1914,360.274,110.312,13.343,29.231,29.98,36.521,6.541,730,680.9,437.5,13.3861,3.90122,0.178,32.8083,2,Apr,2023,00:02:58,7.88537920900675,,,11.8727272727273,1680393601,2,2,2,2,2,2,2
2023-04-02 00:20:02+00:00,#0001089,04/02/2023,00:22:55,10.57,3.61,-3.55,13.89,52,-0.945197,1.2e-005,-0.818063,6.7e-005,-6.2,-1.828,5730,1914,352.07,107.837,13.359,29.473,30.222,36.757,6.535,738.5,681,437,13.4038,3.90238,0.177,32.804,2,Apr,2023,00:22:58,7.88502179337712,,,11.2727272727273,1680394802,2,2,2,2,2,2,2